• Processing (Info)

  • MPEC 2023-J83 : S/2019 S 14

    The following Minor Planet Electronic Circular may be linked-to from your own Web pages, but must not otherwise be redistributed electronically.

    A form allowing access to any MPEC is at the bottom of this page.


    Read MPEC 2023-J82 Read MPEC 2023-J84


    M.P.E.C. 2023-J83                                  Issued 2023 May 10, 20:10 UT
    
         The Minor Planet Electronic Circulars contain information on unusual
             minor planets, routine data on comets and natural satellites,
             and occasional editorial announcements.  They are published
        on behalf of Division F of the International Astronomical Union by the
              Minor Planet Center, Smithsonian Astrophysical Observatory,
                              Cambridge, MA 02138, U.S.A.
    			  
                 Prepared using the Tamkin Foundation Computer Network
    
                                  MPC@CFA.HARVARD.EDU
                URL https://www.minorplanetcenter.net/    ISSN 1523-6714
    
                                   S/2019 S 14                               
                               Satellite of Saturn                           
    
    
    Observations:
        SK19S140*RC2019 07 01.38103 19 17 44.65 -21 56 34.4                cEJ083568
        SK19S140 RC2019 07 01.44402 19 17 43.52 -21 56 37.5                cEJ083568
        SK19S140 RC2019 07 02.40338 19 17 26.68 -21 57 26.8          25.7 wcEJ083568
        SK19S140 RC2019 07 02.41768 19 17 26.41 -21 57 27.5                cEJ083568
        SK19S140 4C2019 08 23.30026 19 03 54.51 -22 36 20.3                cEJ083T14
        SK19S140 4C2019 08 23.31720 19 03 54.33 -22 36 20.9                cEJ083T14
        SK19S140 4C2019 08 23.33983 19 03 54.10 -22 36 21.6                cEJ083T14
        SK19S140 4C2019 08 26.25182 19 03 26.50 -22 37 54.1                cEJ083T14
        SK19S140 4C2019 08 26.27185 19 03 26.31 -22 37 54.6                cEJ083T14
        SK19S140 4C2019 08 26.30051 19 03 26.04 -22 37 55.5                cEJ083T14
        SK19S140 4C2021 07 09.46273 20 55 00.88 -17 38 58.7          26.4 wcEJ083T14
        SK19S140 4C2021 07 09.52602 20 54 59.93 -17 39 03.4          26.5 wcEJ083T14
        SK19S140 4C2021 07 09.54617 20 54 59.63 -17 39 04.9          26.2 wcEJ083T14
    
    Observer details:
    568 Maunakea.  Observers E. J. Ashton, B. J. Gladman.  Measurers E. J. Ashton,
        M. Beaudoin, B. J. Gladman.  3.5-m Canada-France-Hawaii Telescope + CCD.
    T14 Canada-France-Hawaii Telescope, Maunakea.  Observers E. J. Ashton, B. J.
        Gladman, J.-M. Petit, M. Alexandersen.  Measurer E. J. Ashton.  CFHT 3.5m
        + CCD.
    
    Orbital elements:
        S/2019 S 14                                                                 
    Epoch 2023 Feb. 25.0 TT = JDT 2460000.5                 Alexandersen            
    M  20.36973              (2000.0)            P               Q                  
    n   0.39911399     Peri.  344.28415     -0.59788098     -0.61500617             
    a   0.1203563      Node   137.91190     +0.79294965     -0.54766284             
    e   0.0720360      Incl.   50.08628     +0.11734216     +0.56730312             
    P   2.47           H   16.3           P/d   902.00                              
    From 13 observations 2019 Jul. 01-2021 Jul. 09, mean residual 0".06             
    
    Residuals in seconds of arc
    190701 568  0.1+  0.0     190823 T14  0.0   0.0     210709 T14  0.0   0.0
    190701 568  0.1+  0.1+    190823 T14  0.1+  0.0     210709 T14  0.0   0.0
    190702 568  0.0   0.1-    190826 T14  0.0   0.1-    210709 T14  0.0   0.0
    190702 568  0.2-  0.0     190826 T14  0.0   0.0
    190823 T14  0.0   0.1+    190826 T14  0.1-  0.0
    
    
    M. P. C. Staff               (C) Copyright 2023 MPC           M.P.E.C. 2023-J83
    


    Read MPEC 2023-J82 Read MPEC 2023-J84


    MPEC number:

    Enter an MPEC number in one of the following forms:

    • 1997-B01 (the full form)
    • J97B01 (the packed version of the full form)
    • B01 (the abbreviated form)